Weather reports worldwide

Advertisment
Mühldorf, Germany (10875): temperature & dewpoint: 16.09.2018 23:00:00 - 22.09.2018 23:00:00 (CEST)Mühldorf, Germany (10875): temperature 5cm & temperature -5cm: 16.09.2018 23:00:00 - 22.09.2018 23:00:00 (CEST)Mühldorf, Germany (10875): temperature -20cm & temperature -100cm: 16.09.2018 23:00:00 - 22.09.2018 23:00:00 (CEST)Mühldorf, Germany (10875): wind speed & gusts: 16.09.2018 23:00:00 - 22.09.2018 23:00:00 (CEST)Mühldorf, Germany (10875): wind direction: 16.09.2018 23:00:00 - 22.09.2018 23:00:00 (CEST)Mühldorf, Germany (10875): reduced air pressure: 16.09.2018 23:00:00 - 22.09.2018 23:00:00 (CEST)Mühldorf, Germany (10875): visibility: 16.09.2018 23:00:00 - 22.09.2018 23:00:00 (CEST)Mühldorf, Germany (10875): sunshine duration: 16.09.2018 23:00:00 - 22.09.2018 23:00:00 (CEST)Mühldorf, Germany (10875): precipitation: 16.09.2018 23:00:00 - 22.09.2018 23:00:00 (CEST)
Date & Time tt [°C] td [°C] tt 5cm [°C] tt -5cm [°C] tt -20cm [°C] tt -100cm [°C] ff [km/h] ff [kn] fx [km/h] fx [kn] dd ppp [hPa] vv [km] sd [min] rr [mm]
22.09.2018 23:00:00 12,3 10,6 11,9 16,4 18,8 17,6 5 3 8 4 E 1021,0 25 0 0,1
22.09.2018 22:00:00 12,7 9,8 12,2 16,8 18,9 17,6 0 0 4 2 N 1021,7 30 0 0,0
22.09.2018 21:00:00 13,0 8,8 12,4 17,3 18,9 17,6 2 1 6 3 WNW 1021,4 29 0 0,0
22.09.2018 20:00:00 13,1 8,1 12,8 18,1 18,8 17,6 3 2 8 4 N 1021,2 28 0 0,0
22.09.2018 19:00:00 14,8 6,7 14,0 19,3 18,7 17,6 0 0 14 8 N 1020,8 32 19 0,0
22.09.2018 18:00:00 16,1 4,5 15,7 20,5 18,6 17,6 8 4 21 12 WNW 1021,2 25 52 0,0
22.09.2018 17:00:00 16,8 2,8 18,6 21,3 18,5 17,6 12 7 26 14 WSW 1020,8 29 60 0,0
22.09.2018 16:00:00 17,0 3,2 20,4 20,9 18,4 17,6 12 6 26 14 WNW 1021,7 22 59 0,0
22.09.2018 15:00:00 16,8 4,5 19,9 19,7 18,3 17,6 13 7 28 15 W 1022,2 20 57 0,0
22.09.2018 14:00:00 16,1 4,4 20,4 18,4 18,3 17,6 16 9 28 15 WNW 1023,1 27 45 0,0
22.09.2018 13:00:00 14,9 4,2 17,9 17,3 18,3 17,6 15 8 29 16 WNW 1024,0 40 24 0,0
22.09.2018 12:00:00 14,7 5,6 17,1 16,4 18,4 17,6 18 10 31 17 W 1024,3 31 35 0,0
22.09.2018 11:00:00 13,7 6,9 15,2 15,5 18,5 17,6 22 12 32 18 W 1024,8 23 23 0,0
22.09.2018 10:00:00 12,9 8,2 13,4 14,7 18,7 17,6 16 9 23 12 W 1024,9 32 0 0,0
22.09.2018 09:00:00 12,0 10,1 11,7 14,0 18,9 17,6 8 4 12 6 WSW 1024,6 33 0 0,0
22.09.2018 08:00:00 9,4 9,0 8,9 13,7 19,0 17,6 4 2 5 3 WNW 1025,0 24 0 0,0
22.09.2018 07:00:00 9,5 8,5 7,8 14,3 19,2 17,6 3 1 7 4 NNW 1024,7 25 0 0,0
22.09.2018 06:00:00 10,9 9,0 9,0 14,8 19,4 17,6 5 3 16 9 W 1024,4 31 0 0,0
22.09.2018 05:00:00 12,0 9,3 11,4 15,2 19,6 17,6 9 5 16 8 W 1023,7 33 0 0,0
22.09.2018 04:00:00 12,2 9,5 11,7 15,5 19,7 17,6 11 6 15 8 W 1023,3 31 0 0,0
22.09.2018 03:00:00 12,2 10,0 11,1 15,8 19,9 17,6 9 5 19 10 WSW 1022,6 28 0 0,1
22.09.2018 02:00:00 12,3 9,9 11,5 16,3 20,0 17,6 14 8 19 10 W 1022,3 34 0 0,1
22.09.2018 01:00:00 11,9 9,9 11,3 16,8 20,2 17,6 14 8 25 13 W 1021,4 35 0 0,3
22.09.2018 00:00:00 12,4 9,2 11,4 17,8 20,3 17,6 17 9 32 18 W 1019,9 17 0 0,5
21.09.2018 23:00:00 14,0 8,7 12,4 19,3 20,3 17,6 23 13 62 33 WNW 1018,0 32 0 0,0
21.09.2018 22:00:00 19,6 13,2 18,1 20,6 20,3 17,6 29 15 57 31 WNW 1014,5 21 0 0,0
21.09.2018 21:00:00 21,3 12,6 19,5 21,3 20,2 17,6 34 19 55 30 W 1012,4 23 0 0,0
21.09.2018 20:00:00 23,6 12,8 21,9 22,0 20,1 17,6 20 11 34 18 NW 1010,9 27 0 0,0
21.09.2018 19:00:00 24,1 11,8 22,0 23,3 20,0 17,6 21 12 35 19 WNW 1009,8 29 0 0,0
21.09.2018 18:00:00 24,9 13,5 23,9 24,5 19,7 17,6 4 2 16 9 WSW 1009,3 25 5 0,0
21.09.2018 17:00:00 26,6 11,3 26,6 25,7 19,4 17,6 16 9 40 22 W 1009,3 35 46 0,0
21.09.2018 16:00:00 27,4 12,1 28,0 26,5 19,1 17,6 23 12 34 18 W 1009,9 33 57 0,0
21.09.2018 15:00:00 28,0 12,8 31,4 25,8 18,8 17,6 9 5 29 16 WSW 1010,2 16 54 0,0
21.09.2018 14:00:00 26,9 12,6 31,4 25,2 18,6 17,6 11 6 24 13 W 1011,1 19 60 0,0
21.09.2018 13:00:00 25,9 12,6 29,5 23,4 18,5 17,6 9 5 17 9 WSW 1012,0 24 60 0,0
21.09.2018 12:00:00 23,4 13,6 28,1 21,4 18,4 17,6 5 3 14 8 SSW 1012,8 24 60 0,0
21.09.2018 11:00:00 20,6 12,8 24,2 18,9 18,5 17,6 6 3 10 6 S 1013,7 16 60 0,0
21.09.2018 10:00:00 17,2 12,3 18,1 16,6 18,6 17,6 7 4 11 6 S 1014,5 29 60 0,0
21.09.2018 09:00:00 12,9 12,4 14,3 14,9 18,7 17,6 3 2 4 2 E 1015,3 3,8 7 0,0
21.09.2018 08:00:00 11,5 11,5 12,0 14,2 18,9 17,6 1 1 3 2 E 1015,6 0,1 0 0,1
21.09.2018 07:00:00 10,6 10,6 10,7 14,0 19,1 17,6 0 0 3 2 SE 1015,7 0,2 0 0,0
21.09.2018 06:00:00 9,8 9,8 10,0 13,8 19,3 17,6 5 3 6 3 W 1016,0 0,1 0 0,0
21.09.2018 05:00:00 9,6 9,6 8,2 14,1 19,5 17,6 0 0 3 2 N 1016,2 0,3 0 0,0
21.09.2018 04:00:00 10,1 10,0 7,6 14,6 19,7 17,6 3 1 6 3 NW 1016,5 0,6 0 0,0
21.09.2018 03:00:00 11,7 11,7 8,2 15,2 19,9 17,6 5 3 9 5 ESE 1016,5 3,3 0 0,0
21.09.2018 02:00:00 11,3 10,8 8,8 15,8 20,1 17,6 0 0 6 3 N 1017,1 0,4 0 0,0
21.09.2018 01:00:00 11,4 10,7 9,0 16,4 20,2 17,6 5 3 6 3 E 1017,5 12 0 0,0
21.09.2018 00:00:00 12,6 12,4 10,3 17,2 20,4 17,6 0 0 6 3 N 1017,8 9 0 0,0
20.09.2018 23:00:00 13,5 13,0 10,5 18,1 20,5 17,6 3 1 4 2 WNW 1018,0 16 0 0,0
20.09.2018 22:00:00 14,1 12,7 11,1 19,2 20,5 17,6 3 2 4 2 NNW 1018,2 17 0 0,0
20.09.2018 21:00:00 15,5 13,5 12,8 20,5 20,5 17,6 2 1 3 2 N 1018,0 22 0 0,0
20.09.2018 20:00:00 17,7 14,0 14,2 22,3 20,3 17,6 3 1 8 5 E 1017,7 30 0 0,0
20.09.2018 19:00:00 23,2 13,5 21,1 24,4 20,1 17,6 7 4 13 7 E 1016,8 37 49 0,0
20.09.2018 18:00:00 25,4 12,7 26,0 26,1 19,9 17,6 7 4 15 8 ESE 1017,0 40 60 0,0
20.09.2018 17:00:00 26,0 12,5 28,0 26,9 19,6 17,6 8 4 14 7 E 1017,1 16 60 0,0
20.09.2018 16:00:00 26,2 12,6 29,5 27,2 19,2 17,6 7 4 15 8 E 1017,6 30 60 0,0
20.09.2018 15:00:00 25,9 13,2 30,2 26,7 18,9 17,6 9 5 15 8 E 1018,2 25 59 0,0
20.09.2018 14:00:00 24,7 13,0 29,3 25,6 18,6 17,6 7 4 15 8 E 1019,1 22 60 0,0
20.09.2018 13:00:00 23,7 12,9 28,3 23,6 18,4 17,6 7 4 14 8 ESE 1019,9 20 60 0,0
20.09.2018 12:00:00 22,0 13,7 25,5 21,6 18,4 17,6 7 4 13 7 ESE 1020,6 23 60 0,0
20.09.2018 11:00:00 20,0 13,7 24,5 19,4 18,4 17,6 2 1 6 4 ENE 1021,7 15 60 0,0
20.09.2018 10:00:00 18,1 12,5 18,9 16,9 18,5 17,6 2 1 6 3 E 1022,1 12 60 0,0
20.09.2018 09:00:00 14,4 12,6 15,9 14,8 18,7 17,6 5 3 7 4 E 1022,4 3,9 54 0,0
20.09.2018 08:00:00 12,1 12,1 12,5 13,8 18,9 17,6 4 2 6 4 E 1022,7 2,5 9 0,0
20.09.2018 07:00:00 10,7 10,7 9,0 13,7 19,1 17,6 1 1 7 4 E 1022,9 0,2 0 0,0
20.09.2018 06:00:00 10,3 10,0 9,4 13,9 19,3 17,6 1 1 3 2 NE 1022,7 0,3 0 0,0
20.09.2018 05:00:00 10,8 10,6 9,1 14,3 19,5 17,6 3 2 5 3 ENE 1022,7 1,6 0 0,0
20.09.2018 04:00:00 10,9 9,6 9,2 14,7 19,7 17,6 3 2 8 4 E 1022,7 0,8 0 0,0
20.09.2018 03:00:00 11,6 11,3 9,9 15,2 19,9 17,6 4 2 7 4 E 1022,3 1,0 0 0,0
20.09.2018 02:00:00 12,1 11,7 9,7 15,8 20,1 17,6 3 2 5 3 E 1022,4 22 0 0,0
20.09.2018 01:00:00 12,6 12,0 11,0 16,5 20,3 17,6 0 0 3 2 N 1022,4 11 0 0,0
20.09.2018 00:00:00 13,4 13,1 11,4 17,3 20,5 17,6 0 0 5 3 N 1022,4 11 0 0,0
19.09.2018 23:00:00 13,9 13,5 11,9 18,1 20,6 17,6 0 0 3 2 N 1022,4 13 0 0,0
19.09.2018 22:00:00 15,0 14,2 12,9 19,2 20,7 17,6 2 1 4 2 NW 1022,0 17 0 0,0
19.09.2018 21:00:00 15,9 14,5 13,9 20,6 20,7 17,6 3 2 6 3 E 1021,6 21 0 0,0
19.09.2018 20:00:00 17,4 14,4 14,9 22,3 20,6 17,6 4 2 7 4 E 1021,1 24 0 0,0
19.09.2018 19:00:00 21,3 14,2 20,7 24,4 20,5 17,6 0 0 5 3 N 1020,1 28 49 0,0
19.09.2018 18:00:00 24,0 13,1 24,3 25,7 20,2 17,6 6 3 12 6 WNW 1019,5 19 60 0,0
19.09.2018 17:00:00 25,2 10,9 27,1 26,5 20,0 17,6 3 2 11 6 WSW 1019,5 43 60 0,0
19.09.2018 16:00:00 24,9 10,9 27,0 26,3 19,7 17,6 6 3 14 8 SSW 1019,7 33 60 0,0
19.09.2018 15:00:00 25,1 11,6 28,2 26,0 19,4 17,6 5 3 11 6 SW 1020,0 35 60 0,0
19.09.2018 14:00:00 23,4 12,8 28,0 24,8 19,2 17,6 5 3 12 6 E 1020,6 25 56 0,0
19.09.2018 13:00:00 22,4 13,0 24,7 23,4 19,1 17,6 6 3 12 7 SW 1021,0 32 55 0,0
19.09.2018 12:00:00 20,9 14,0 23,1 21,4 19,1 17,6 4 2 12 6 SSW 1021,8 29 32 0,0
19.09.2018 11:00:00 19,1 13,2 21,4 19,8 19,1 17,6 7 4 14 8 S 1022,1 23 55 0,0
19.09.2018 10:00:00 17,3 13,6 19,7 17,7 19,2 17,6 6 4 11 6 SSW 1022,2 14 18 0,0
19.09.2018 09:00:00 16,0 14,5 16,4 17,0 19,3 17,6 4 2 9 5 S 1021,9 22 0 0,0
19.09.2018 08:00:00 15,5 14,9 15,3 16,9 19,5 17,6 6 4 12 7 SSE 1021,5 15 0 0,0
19.09.2018 07:00:00 15,2 14,6 15,0 17,0 19,6 17,6 3 2 8 5 ENE 1021,1 11 0 0,5
19.09.2018 06:00:00 15,8 14,3 14,9 17,1 19,7 17,6 5 3 22 12 NNE 1020,8 22 0 0,2
19.09.2018 05:00:00 15,2 14,7 15,0 17,4 19,9 17,6 6 4 8 5 WNW 1020,5 8 0 0,2
19.09.2018 04:00:00 15,4 14,7 15,2 17,6 20,0 17,6 2 1 13 7 NNE 1020,9 17 0 0,0
19.09.2018 03:00:00 15,4 14,7 15,2 17,9 20,2 17,6 3 1 8 4 W 1020,6 19 0 0,1
19.09.2018 02:00:00 15,7 14,8 15,3 18,2 20,4 17,7 3 2 11 6 WSW 1021,2 19 0 0,2
19.09.2018 01:00:00 15,7 14,6 15,3 18,6 20,5 17,7 5 3 18 10 ESE 1020,3 26 0 2,0
19.09.2018 00:00:00 16,2 13,9 15,1 19,4 20,6 17,7 10 5 19 10 ESE 1020,1 11 0 1,2
18.09.2018 23:00:00 17,8 13,0 16,4 20,2 20,7 17,7 10 5 24 13 WSW 1019,1 32 0 0,0
18.09.2018 22:00:00 18,7 12,8 18,0 21,0 20,8 17,7 10 5 39 21 SW 1019,0 38 0 0,0
18.09.2018 21:00:00 21,0 14,0 19,3 22,2 20,7 17,7 20 11 30 16 WSW 1017,7 23 0 0,0
18.09.2018 20:00:00 18,5 15,7 16,0 24,0 20,5 17,7 5 3 6 4 W 1016,6 18 0 0,0
18.09.2018 19:00:00 22,5 16,0 19,9 26,6 20,3 17,7 0 0 8 5 N 1015,5 7 37 0,0
18.09.2018 18:00:00 26,5 13,5 26,7 28,4 19,9 17,7 6 3 14 8 WNW 1015,0 20 60 0,0
18.09.2018 17:00:00 27,0 12,4 29,0 29,3 19,5 17,7 4 2 10 5 WNW 1015,0 10 60 0,0
18.09.2018 16:00:00 27,0 13,6 33,5 29,2 19,1 17,7 4 2 12 6 NNE 1015,5 17 60 0,0
18.09.2018 15:00:00 26,4 14,7 30,7 28,5 18,7 17,7 5 3 11 6 S 1016,0 23 60 0,0
18.09.2018 14:00:00 26,0 14,2 31,0 26,9 18,3 17,7 5 3 9 5 SSW 1016,4 15 60 0,0
18.09.2018 13:00:00 24,1 13,1 31,3 24,7 18,1 17,7 4 2 12 7 N 1017,1 16 60 0,0
18.09.2018 12:00:00 22,7 14,6 27,6 22,3 18,0 17,7 4 2 10 5 NNW 1017,6 11 60 0,0
18.09.2018 11:00:00 20,2 13,3 26,4 19,6 18,1 17,7 3 2 9 5 N 1018,3 10 60 0,0
18.09.2018 10:00:00 19,1 13,9 21,4 17,1 18,2 17,7 2 1 6 3 SSW 1018,4 9 60 0,0
18.09.2018 09:00:00 14,9 11,7 15,9 14,9 18,3 17,7 3 2 5 3 S 1019,1 7 59 0,0
18.09.2018 08:00:00 11,4 11,4 11,7 13,8 18,5 17,7 5 3 9 5 WNW 1019,3 2,7 0 0,0
18.09.2018 07:00:00 10,6 10,5 9,3 13,9 18,7 17,7 0 0 3 2 N 1019,0 0,1 0 0,0
18.09.2018 06:00:00 11,2 11,2 9,4 14,3 18,9 17,7 3 1 4 2 WNW 1018,9 2,0 0 0,0
18.09.2018 05:00:00 11,2 11,0 9,8 14,7 19,1 17,7 3 1 5 3 N 1018,8 0,3 0 0,0
18.09.2018 04:00:00 11,8 11,5 10,1 15,2 19,3 17,7 2 1 3 2 ENE 1018,7 1,3 0 0,0
18.09.2018 03:00:00 12,2 11,5 10,5 15,6 19,5 17,7 2 1 3 2 W 1018,7 10 0 0,0
18.09.2018 02:00:00 12,4 12,0 10,6 16,2 19,6 17,7 3 1 5 3 N 1018,9 7 0 0,0
18.09.2018 01:00:00 13,0 12,5 10,8 16,8 19,8 17,7 0 0 0 0 N 1019,0 9 0 0,0
18.09.2018 00:00:00 13,5 13,0 11,6 17,6 20,0 17,7 0 0 3 2 N 1019,1 9 0 0,0
17.09.2018 23:00:00 14,3 13,2 12,4 18,5 20,1 17,7 2 1 4 2 W 1019,2 10 0 0,0
17.09.2018 22:00:00 15,4 14,5 13,4 19,7 20,1 17,7 3 1 4 2 W 1019,2 11 0 0,0
17.09.2018 21:00:00 16,8 14,5 14,2 21,0 20,0 17,7 3 1 8 4 E 1019,1 15 0 0,0
17.09.2018 20:00:00 18,7 15,1 15,9 22,8 19,9 17,7 5 3 8 5 E 1018,6 16 0 0,0
17.09.2018 19:00:00 22,1 15,0 20,9 24,9 19,6 17,7 5 3 9 5 E 1017,9 21 42 0,0
17.09.2018 18:00:00 24,8 13,7 25,9 26,7 19,3 17,7 8 4 14 8 E 1017,6 18 60 0,0
17.09.2018 17:00:00 25,5 14,0 28,0 27,6 18,9 17,7 7 4 13 7 SE 1017,8 19 60 0,0
17.09.2018 16:00:00 25,6 12,3 29,3 27,5 18,5 17,7 4 2 14 7 NW 1018,4 26 60 0,0
17.09.2018 15:00:00 25,5 14,5 30,3 26,6 18,2 17,7 3 1 13 7 NW 1018,8 17 49 0,0
17.09.2018 14:00:00 24,7 13,7 29,5 25,7 17,9 17,7 4 2 14 7 SSW 1019,5 17 59 0,0
17.09.2018 13:00:00 23,8 14,0 28,3 23,8 17,6 17,7 5 3 12 6 S 1020,1 17 60 0,0
17.09.2018 12:00:00 22,6 15,2 27,1 21,7 17,5 17,7 3 2 10 5 W 1020,8 17 60 0,0
17.09.2018 11:00:00 20,6 13,9 25,5 19,3 17,5 17,7 4 2 11 6 SSE 1021,6 20 60 0,0
17.09.2018 10:00:00 18,2 13,7 20,8 17,1 17,6 17,7 6 3 8 4 SE 1022,3 9 60 0,0
17.09.2018 09:00:00 15,9 11,9 15,9 14,9 17,7 17,7 3 2 4 2 S 1022,8 6 50 0,0
17.09.2018 08:00:00 12,2 11,5 11,9 14,1 17,8 17,8 3 2 4 2 W 1023,2 6 0 0,0
17.09.2018 07:00:00 11,8 11,6 10,7 14,1 17,9 17,8 3 2 5 3 E 1022,9 6 0 0,0
17.09.2018 06:00:00 12,3 11,9 10,7 14,6 18,0 17,8 4 2 5 3 ENE 1022,4 6 0 0,0
17.09.2018 05:00:00 13,5 13,1 11,9 15,0 18,1 17,8 0 0 6 3 N 1021,9 7 0 0,0
17.09.2018 04:00:00 13,9 13,5 12,8 15,2 18,3 17,8 3 2 5 3 SSE 1022,0 9 0 0,0
17.09.2018 03:00:00 13,7 13,3 13,5 15,2 18,4 17,8 0 0 4 2 N 1022,0 7 0 0,0
17.09.2018 02:00:00 13,3 12,9 13,0 15,2 18,5 17,8 0 0 6 3 N 1022,4 10 0 0,0
17.09.2018 01:00:00 13,5 12,9 12,5 15,5 18,7 17,8 2 1 5 3 W 1022,5 9 0 0,0
17.09.2018 00:00:00 12,9 12,5 11,6 15,9 18,8 17,8 3 2 4 2 WNW 1022,5 9 0 0,0
16.09.2018 23:00:00 13,3 12,5 11,3 16,6 18,9 17,8 4 2 9 5 WNW 1022,2 9 0 0,0

tt = temperature
td = dewpoint
tt 5cm = temperature 5cm
tt -5cm = temperature -5cm
tt -20cm = temperature -20cm
tt -100cm = temperature -100cm
ff = wind speed
fx = gusts
dd = wind direction
ppp = reduced air pressure
vv = visibility
sd = sunshine duration
rr = precipitation

Next stations